Weather in Shovgenovsky

Russia / Republic of Adygea     45°01′55″N   40°07′36″E
temp.,
°C
wind,
m/s
gust,
m/s
humid.,
%
clouds,
%
prec.,
mm/h
press.,
hPa
HPBL,
m
18 october, mon
mon1800:00+13w34956 0.1 101481
03:00+12w35775 0.1 101598
06:00+10wsw34756 0.0 101572
09:00+14w345594 0.0 1016305
12:00+18wnw444228 0.0 1016853
15:00+19wnw45398 0.0 10161374
18:00+15wnw334941 0.0 101724
21:00+12wnw346423 0.0 101863
19 october, tue
tue1900:00+11wsw367676 0.0 1019146
03:00+9wsw47855 0.0 1020193
06:00+8wsw4889100 0.0 1020238
09:00+11w696777 0.0 1020863
12:00+14w811465 0.0 10191522
15:00+11w7136491 0.1 10201331
18:00+10w611695 0.1 1022787
21:00+8w5107425 0.1 1025424
20 october, wed
wed2000:00+6wsw34835 0.0 102676
03:00+5wsw38915 0.0 1026146
06:00+4w38915 0.0 1027159
09:00+8w47524 0.0 1028525
12:00+11wnw673720 0.0 10281512
15:00+12wnw673622 0.0 10281687
18:00+8nw234958 0.0 102935
21:00+6n11575 0.0 103012
21 october, thu
thu2100:00+5sse11615 0.0 102910
03:00+4s11645 0.0 102910
06:00+4sse226510 0.0 102913
09:00+8sse225298 0.0 1029204
12:00+13wsw233814 0.0 1027794
15:00+15wnw233896 0.0 10251002
18:00+11ene11515 0.0 102510
21:00+9se335594 0.0 102425
22 october, fri
fri2200:00+8sse33523 0.0 102324
03:00+8sse22560 0.0 102213
06:00+8se22600 0.0 102110
09:00+12se22480 0.0 1021145
12:00+19se01345 0.0 1020488
15:00+21w22285 0.0 1019800
18:00+16e12380 0.0 102011
21:00+13se22460 0.0 101912